Location: Yecla
(38.6122°N, 1.1101°W)
Time: 09:13:13
(UTC+02:00)

ISS - Visible Passes

Search period start: 15 May 2021 00:00
Search period end: 25 May 2021 00:00
Orbit: 417 x 422 km, 51.6° (Epoch: 15 May)

Date Brightness Start Highest point End Pass type
(mag) Time Alt. Az. Time Alt. Az. Time Alt. Az.
15 May -0.9 00:25:25 10° WNW 00:27:51 18° NNW 00:30:16 10° NNE visible
15 May -0.4 03:41:59 10° NNW 03:43:47 14° NNE 03:45:36 10° NE visible
15 May -3.1 05:17:51 10° NW 05:21:11 57° NE 05:24:30 10° ESE visible
15 May -3.3 22:00:10 10° SSW 22:03:19 39° SE 22:06:30 10° ENE visible
15 May -1.4 23:37:23 10° W 23:40:13 25° NNW 23:43:04 10° NNE visible
16 May -0.2 02:54:57 10° N 02:56:04 11° NNE 02:57:11 10° NNE visible
16 May -2.1 04:30:32 10° NW 04:33:40 35° NNE 04:36:47 10° E visible
16 May -2.6 06:07:34 10° WNW 06:10:22 24° SW 06:13:09 10° S visible
16 May -2.1 22:49:31 10° WSW 22:52:39 37° NNW 22:55:49 10° NE visible
17 May -0.3 00:29:02 10° NW 00:30:14 11° NNW 00:31:25 10° N visible
17 May -1.4 03:43:17 10° NNW 03:46:06 24° NNE 03:48:54 10° E visible
17 May -3.5 05:19:48 10° WNW 05:23:02 43° SW 05:26:14 10° SSE visible
17 May -3.2 22:01:50 10° WSW 22:05:08 61° NW 22:08:29 10° NE visible
17 May -0.5 23:40:38 10° NW 23:42:30 14° NNW 23:44:22 10° NNE visible
18 May -0.7 22:52:25 10° WNW 22:54:49 18° NNW 22:57:14 10° NNE visible
19 May -0.3 02:08:57 10° NNW 02:09:22 11° N 02:09:22 11° N visible
19 May -1.2 22:04:22 10° W 22:07:11 25° NNW 22:10:01 10° NNE visible
20 May -0.4 01:21:56 10° N 01:23:02 11° NNE 01:23:11 11° NNE visible
20 May -0.4 22:56:00 10° NW 22:57:10 11° NNW 22:58:21 10° N visible
21 May -0.7 22:07:35 10° NW 22:09:26 14° NNW 22:11:17 10° NNE visible
22 May -0.5 01:23:01 10° NNW 01:23:58 14° N 01:23:58 14° N visible
23 May -0.8 00:35:52 10° NNW 00:37:41 14° NNE 00:37:57 14° NNE visible
23 May -0.7 23:48:49 10° N 23:49:55 11° NNE 23:51:02 10° NNE visible
24 May -0.5 01:24:23 10° NW 01:24:53 13° NNW 01:24:53 13° NNW visible
